"2016-02-13 00:00:00",1369371,1.74,131.1,6.43,1.193,9.37,102.7573,6.337,7.523,54.34,0,110.2,13.14,7.11,93.1
"2016-02-13 00:00:30",1369372,1.858,131.2,10.41,1.23,9.34,102.7531,6.327,7.49,54.31,0,110.2,13.14,7.10,93.2
"2016-02-13 00:01:00",1369373,2.527,121.4,7.393,1.444,10.38,102.7432,6.302,7.497,54.3,0,110.2,13.14,7.08,83.4
"2016-02-13 00:01:30",1369374,1.274,117.1,5.444,1.112,8.84,102.7427,6.3,7.474,54.23,0,110.2,13.14,7.07,79.1
"2016-02-13 00:02:00",1369375,0.658,113,4.439,0.172,7.429,102.743,6.301,7.349,54.19,0,110.2,13.18,7.08,75.0
"2016-02-13 00:02:30",1369376,0.825,114.8,4.515,0.079,7.295,102.743,6.301,7.347,54.2,0,110.2,13.18,7.08,76.8
"2016-02-13 00:03:00",1369377,0.863,128.9,4.516,0.763,8.04,102.7342,6.278,7.411,54.31,0,110.2,13.14,7.05,90.9
"2016-02-13 00:03:30",1369378,2.258,132.1,7.441,1.384,9.79,102.726,6.258,7.414,54.4,0,110.2,13.14,7.03,94.1
"2016-02-13 00:04:00",1369379,1.947,127.6,7.944,1.354,9.67,102.7145,6.228,7.481,54.48,0,110.3,13.14,7.00,89.6
"2016-02-13 00:04:30",1369380,1.797,123.6,7.539,1.418,10.46,102.7091,6.214,7.516,54.54,0,110.2,13.14,6.99,85.6
"2016-02-13 00:05:00",1369381,0.73,112.9,1.04,0.054,8.02,102.7091,6.214,7.284,54.31,0,110.2,13.19,6.99,74.9
"2016-02-13 00:05:30",1369382,1.476,115.5,6.826,1.267,9.25,102.7068,6.209,7.352,54.41,0,110.2,13.15,6.98,77.5
"2016-02-13 00:06:00",1369383,2.135,123.4,8.32,1.429,10.24,102.6981,6.186,7.443,54.53,0,110.2,13.15,6.96,85.4
"2016-02-13 00:06:30",1369384,0.636,121,4.209,0.134,7.565,102.6888,6.162,7.246,54.39,0,110.2,13.2,6.94,83.0
"2016-02-13 00:07:00",1369385,0.414,138.6,7.957,0.158,7.309,102.6761,6.13,7.232,54.47,0,110.2,13.2,6.90,100.6
"2016-02-13 00:07:30",1369386,0.547,128.7,5.354,0.828,7.956,102.6752,6.128,7.298,54.63,0,110.2,13.15,6.90,90.7
"2016-02-13 00:08:00",1369387,1.986,120.7,10.39,1.423,10.15,102.6747,6.126,7.341,54.73,0,110.2,13.15,6.90,82.7
"2016-02-13 00:08:30",1369388,1.721,121.4,9.01,1.377,9.78,102.6651,6.102,7.37,54.83,0,110.2,13.15,6.88,83.4
"2016-02-13 00:09:00",1369389,2.098,127.1,7.195,1.43,10.38,102.6521,6.069,7.294,54.87,0,110.2,13.15,6.84,89.1
"2016-02-13 00:09:30",1369390,0.837,115.4,4.196,0.098,8.06,102.6414,6.041,7.155,54.82,0,110.2,13.2,6.81,77.4
"2016-02-13 00:10:00",1369391,0.907,118.8,4.753,0.088,8.19,102.6414,6.041,7.197,54.91,0,110.2,13.2,6.81,80.8
"2016-02-13 00:10:30",1369392,2.464,126.2,8.15,1.462,10.54,102.6335,6.021,7.249,55.06,0,110.2,13.15,6.79,88.2
"2016-02-13 00:11:00",1369393,1.258,122.4,4.088,0.613,8.23,102.6199,5.987,7.172,55.05,0,110.2,13.16,6.76,84.4
"2016-02-13 00:11:30",1369394,1.144,127.2,0.885,0.053,7.462,102.6078,5.956,7.076,55,0,110.2,13.2,6.73,89.2
"2016-02-13 00:12:00",1369395,2.375,135.5,7.425,1.38,10.29,102.6075,5.955,7.281,55.26,0,110.2,13.15,6.73,97.5
"2016-02-13 00:12:30",1369396,2.347,138.9,6.582,1.389,10.32,102.5965,5.927,7.142,55.25,0,110.2,13.15,6.70,100.9
"2016-02-13 00:13:00",1369397,1.712,141.2,7.65,1.284,10.02,102.5802,5.885,7.194,55.41,0,110.2,13.16,6.66,103.2
"2016-02-13 00:13:30",1369398,1.167,145.5,7.054,1.086,9.02,102.5809,5.887,7.019,55.29,0,110.2,13.16,6.66,107.5
"2016-02-13 00:14:00",1369399,0.805,136.9,3.853,0.082,7.958,102.5693,5.857,6.989,55.35,0,110.2,13.2,6.63,98.9
"2016-02-13 00:14:30",1369400,2.247,140,7.541,1.416,10.69,102.5542,5.819,7.089,55.54,0,110.2,13.16,6.59,102.0
"2016-02-13 00:15:00",1369401,1.244,132.9,5.755,1.137,9.01,102.5525,5.814,7.032,55.56,0,110.2,13.16,6.59,94.9
"2016-02-13 00:15:30",1369402,0.75,130.4,1.377,0.037,7.404,102.5453,5.796,6.894,55.52,0,110.2,13.21,6.57,92.4
"2016-02-13 00:16:00",1369403,1.462,131.2,6.574,1.194,8.66,102.5354,5.771,6.972,55.69,0,110.2,13.16,6.54,93.2
"2016-02-13 00:16:30",1369404,1.988,132.9,7.475,1.374,9.64,102.5253,5.745,7.032,55.83,0,110.2,13.15,6.52,94.9
"2016-02-13 00:17:00",1369405,1.764,130.1,7.238,1.38,9.92,102.5178,5.725,7.054,55.95,0,110.2,13.15,6.50,92.1
"2016-02-13 00:17:30",1369406,1.278,119.9,6.386,1.062,9,102.5034,5.689,6.854,55.82,0,110.2,13.16,6.46,81.9
"2016-02-13 00:18:00",1369407,0.876,112.2,3.372,0.058,7.948,102.5027,5.687,6.778,55.85,0,110.2,13.2,6.46,74.2
"2016-02-13 00:18:30",1369408,0.906,110.3,0.686,0.027,7.983,102.494,5.665,6.753,55.94,0,110.1,13.2,6.44,72.3
"2016-02-13 00:19:00",1369409,1.876,115.7,7.232,1.344,10.05,102.4745,5.615,6.939,56.15,0,110.2,13.16,6.39,77.7
"2016-02-13 00:19:30",1369410,1.424,111.3,6.052,1.046,8.71,102.4723,5.609,6.71,55.97,0,110.2,13.16,6.38,73.3
"2016-02-13 00:20:00",1369411,1.893,110.1,6.232,1.307,9.42,102.4562,5.568,6.743,56.06,0,110.2,13.16,6.34,72.1
"2016-02-13 00:20:30",1369412,1.974,106.8,6.701,1.296,9.51,102.4404,5.528,6.834,56.26,0,110.2,13.16,6.30,68.8
"2016-02-13 00:21:00",1369413,2.717,110.3,7.38,1.422,10.94,102.437,5.519,6.832,56.31,0,110.2,13.16,6.29,72.3
"2016-02-13 00:21:30",1369414,2.304,113.2,7.224,1.38,9.97,102.4232,5.484,6.705,56.27,0,110.1,13.17,6.26,75.2
"2016-02-13 00:22:00",1369415,1.327,110.3,0.57,0.036,7.782,102.4054,5.439,6.568,56.22,0,110.1,13.22,6.21,72.3
"2016-02-13 00:22:30",1369416,1.404,110.5,0.43,0.021,7.817,102.3995,5.423,6.543,56.24,0,110.1,13.22,6.19,72.5
"2016-02-13 00:23:00",1369417,2.489,116.3,7.139,1.342,10,102.3823,5.379,6.733,56.5,0,110.1,13.17,6.15,78.3
"2016-02-13 00:23:30",1369418,2.399,114.3,6.795,1.359,9.33,102.3701,5.348,6.596,56.5,0,110.1,13.18,6.12,76.3
"2016-02-13 00:24:00",1369419,2.206,114.1,6.673,1.281,9.55,102.356,5.312,6.643,56.66,0,110.1,13.18,6.08,76.1
"2016-02-13 00:24:30",1369420,1.943,114.1,6.014,1.197,9.2,102.3394,5.27,6.578,56.7,0,110.1,13.18,6.04,76.1
"2016-02-13 00:25:00",1369421,2.588,115.8,6.941,1.404,10,102.3338,5.256,6.512,56.74,0,110.1,13.18,6.03,77.8
"2016-02-13 00:25:30",1369422,1.561,110.8,5.393,0.979,8.86,102.3114,5.199,6.475,56.85,0,110.1,13.18,5.97,72.8
"2016-02-13 00:26:00",1369423,1.082,107.9,0.569,0.027,7.796,102.3082,5.19,6.346,56.85,0,110.1,13.23,5.96,69.9
"2016-02-13 00:26:30",1369424,1.003,107.7,0.528,0.051,7.948,102.2963,5.16,6.323,56.94,0,110.1,13.23,5.93,69.7
"2016-02-13 00:27:00",1369425,1.59,110.8,6.047,1.226,9.42,102.2817,5.123,6.374,57.13,0,110.1,13.18,5.89,72.8
"2016-02-13 00:27:30",1369426,1.733,110.3,6.849,1.352,10.18,102.2784,5.114,6.406,57.27,0,110.1,13.18,5.88,72.3
"2016-02-13 00:28:00",1369427,1.495,108.8,6.753,1.278,9.66,102.2649,5.08,6.414,57.42,0,110.1,13.18,5.85,70.8
"2016-02-13 00:28:30",1369428,1.21,110.2,5.621,1.191,8.59,102.2534,5.05,6.222,57.32,0,110.1,13.18,5.82,72.2
"2016-02-13 00:29:00",1369429,1.866,118.3,6.735,1.413,9.96,102.2551,5.055,6.296,57.51,0,110.1,13.18,5.82,80.3
"2016-02-13 00:29:30",1369430,1.384,119.1,6.379,1.26,9.18,102.2448,5.028,6.249,57.59,0,110.1,13.18,5.80,81.1
"2016-02-13 00:30:00",1369431,0.682,116.4,0.53,0.038,7.513,102.231,4.993,6.132,57.55,0,110.1,13.23,5.76,78.4
"2016-02-13 00:30:30",1369432,0.717,115.8,0.598,0,7.501,102.2334,4.999,6.098,57.67,0,110.1,13.23,5.77,77.8
"2016-02-13 00:31:00",1369433,0.677,114.8,0.533,0.028,7.476,102.2153,4.953,6.088,57.77,0,110.1,13.24,5.72,76.8
"2016-02-13 00:31:30",1369434,1.327,118.3,6.435,1.197,8.96,102.2026,4.921,6.157,57.99,0,110.1,13.2,5.69,80.3
"2016-02-13 00:32:00",1369435,1.779,121.6,6.922,1.371,10.05,102.2004,4.915,6.2,58.16,0,110.1,13.2,5.68,83.6
"2016-02-13 00:32:30",1369436,1.246,117.1,6.331,1.197,9.07,102.1854,4.877,6.173,58.23,0,110.1,13.2,5.65,79.1
"2016-02-13 00:33:00",1369437,1.64,119.6,6.931,1.37,9.76,102.169,4.835,6.087,58.3,0,110.1,13.2,5.60,81.6
"2016-02-13 00:33:30",1369438,2.142,119.6,7.298,1.397,10.45,102.1639,4.822,6.159,58.51,0,110.1,13.2,5.59,81.6
"2016-02-13 00:34:00",1369439,1.226,111.5,4.177,0.85,7.978,102.1479,4.781,5.927,58.38,0,110.1,13.2,5.55,73.5
"2016-02-13 00:34:30",1369440,0.997,110.2,1.228,0.028,7.457,102.1349,4.748,5.905,58.51,0,110.1,13.25,5.52,72.2
"2016-02-13 00:35:00",1369441,1.014,107.3,1.888,0.005,7.552,102.1332,4.743,5.878,58.61,0,110.1,13.25,5.51,69.3
"2016-02-13 00:35:30",1369442,1.455,103.2,4.408,0.894,8.46,102.1103,4.685,5.971,58.75,0,110.1,13.2,5.45,65.2
"2016-02-13 00:36:00",1369443,2.656,104.6,7.426,1.374,10.24,102.101,4.661,6,58.92,0,110,13.2,5.43,66.6
"2016-02-13 00:36:30",1369444,2.729,103.7,6.436,1.342,9.98,102.101,4.661,5.996,59.06,0,110,13.2,5.43,65.7
"2016-02-13 00:37:00",1369445,3.065,110.2,6.427,1.36,9.55,102.0894,4.632,5.967,59.19,0,110,13.2,5.40,72.2
"2016-02-13 00:37:30",1369446,3.462,119.7,8.43,1.445,10.38,102.0728,4.589,5.9,59.42,0,110,13.2,5.36,81.7
"2016-02-13 00:38:00",1369447,1.815,116.7,2.215,0.104,7.444,102.0746,4.594,5.739,59.62,0,110,13.25,5.36,78.7
"2016-02-13 00:38:30",1369448,1.9,119.6,1.717,0.108,7.259,102.0622,4.562,5.72,59.96,0,110,13.25,5.33,81.6
"2016-02-13 00:39:00",1369449,2.748,121.5,7.424,1.318,9.23,102.0513,4.534,5.829,60.31,0,110,13.21,5.30,83.5
"2016-02-13 00:39:30",1369450,3.499,123,7.061,1.352,10.92,102.048,4.526,5.834,60.35,0,110,13.21,5.29,85.0
"2016-02-13 00:40:00",1369451,2.517,114.7,7.096,1.298,8.78,102.0325,4.486,5.764,60.37,0,110,13.21,5.25,76.7
"2016-02-13 00:40:30",1369452,2.529,112.1,7.374,1.367,9.6,102.0232,4.462,5.802,60.52,0,110,13.21,5.23,74.1
"2016-02-13 00:41:00",1369453,1.718,100.2,6.419,1.217,9.48,102.0216,4.458,5.699,60.53,0,110,13.21,5.23,62.2
"2016-02-13 00:41:30",1369454,0.951,91.8,3.14,0.089,8.08,102.0089,4.426,5.559,60.46,0,110,13.25,5.19,53.8
"2016-02-13 00:42:00",1369455,0.939,84.4,2.043,0.051,8.16,102.0017,4.407,5.539,60.52,0,110,13.25,5.17,46.4
"2016-02-13 00:42:30",1369456,1.011,84.1,1.855,0.073,8.16,101.9989,4.4,5.529,60.58,0,110,13.26,5.17,46.1
"2016-02-13 00:43:00",1369457,1.967,93.4,6.792,1.306,9.7,101.9884,4.374,5.653,60.81,0,110,13.21,5.14,55.4
"2016-02-13 00:43:30",1369458,2.6,100.5,5.187,1.373,10.48,101.9729,4.334,5.654,60.88,0,110,13.21,5.10,62.5
"2016-02-13 00:44:00",1369459,2.53,108.1,7.753,1.418,10.79,101.9661,4.317,5.64,60.94,0,110,13.21,5.08,70.1
"2016-02-13 00:44:30",1369460,1.941,107.9,7.203,1.311,8.93,101.9638,4.311,5.546,60.97,0,110,13.21,5.08,69.9
"2016-02-13 00:45:00",1369461,1.837,106.8,6.289,1.238,9.03,101.952,4.281,5.565,61.12,0,110,13.21,5.05,68.8
"2016-02-13 00:45:30",1369462,1.233,98.3,3.653,0.084,8.19,101.9412,4.253,5.405,61.08,0,110,13.26,5.02,60.3
"2016-02-13 00:46:00",1369463,1.263,93,1.715,0.089,7.987,101.9322,4.23,5.366,61.13,0,110,13.26,5.00,55.0
"2016-02-13 00:46:30",1369464,1.472,93,4.745,0.72,8.16,101.9294,4.223,5.349,61.19,0,110,13.21,4.99,55.0
"2016-02-13 00:47:00",1369465,1.963,95.5,6.89,1.287,9.56,101.9175,4.193,5.437,61.39,0,110,13.22,4.96,57.5
"2016-02-13 00:47:30",1369466,2.603,101.6,6.76,1.457,10.92,101.9104,4.175,5.546,61.61,0,110,13.22,4.94,63.6
"2016-02-13 00:48:00",1369467,1.624,96.1,5.812,1.182,9,101.8986,4.144,5.374,61.55,0,110,13.22,4.91,58.1
"2016-02-13 00:48:30",1369468,1.788,97,6.407,1.305,9.64,101.898,4.143,5.443,61.65,0,110,13.21,4.91,59.0
"2016-02-13 00:49:00",1369469,1.8,101,9.18,1.464,10.45,101.8921,4.128,5.391,61.66,0,110,13.22,4.89,63.0
"2016-02-13 00:49:30",1369470,0.742,90.5,3.536,0.109,8.28,101.8866,4.114,5.249,61.58,0,110,13.26,4.88,52.5
"2016-02-13 00:50:00",1369471,0.844,92.8,4.403,0.062,7.954,101.8819,4.102,5.225,61.65,0,110,13.25,4.87,54.8
"2016-02-13 00:50:30",1369472,1.338,95.2,3.603,0.149,7.755,101.8791,4.094,5.202,61.72,0,110,13.26,4.86,57.2
"2016-02-13 00:51:00",1369473,2.57,99.5,7.125,1.354,9.14,101.8825,4.103,5.313,61.85,0,110,13.21,4.87,61.5
"2016-02-13 00:51:30",1369474,3.303,103,8.42,1.376,11.07,101.8818,4.101,5.421,61.96,0,110,13.21,4.87,65.0
"2016-02-13 00:52:00",1369475,3.235,94.9,7.865,1.418,10.59,101.8748,4.084,5.36,61.77,0,110,13.21,4.85,56.9
"2016-02-13 00:52:30",1369476,3.357,85.9,7.624,1.423,10.1,101.8638,4.055,5.263,61.54,0,110,13.21,4.82,47.9
"2016-02-13 00:53:00",1369477,2.599,73.49,7.158,1.212,8.75,101.8633,4.054,5.247,61.47,0,110,13.22,4.82,35.5
"2016-02-13 00:53:30",1369478,1.954,63.88,1.383,0.027,7.467,101.865,4.059,5.123,61.36,0,110,13.26,4.82,25.9
"2016-02-13 00:54:00",1369479,2.258,64.64,4.675,0.849,8.04,101.8594,4.044,5.123,61.34,0,110,13.22,4.81,26.6
"2016-02-13 00:54:30",1369480,3.027,70.38,6.618,1.362,9.3,101.8509,4.023,5.213,61.44,0,110,13.22,4.79,32.4
"2016-02-13 00:55:00",1369481,3.078,76.43,6.764,1.326,9.26,101.8469,4.012,5.283,61.53,0,110,13.22,4.78,38.4
"2016-02-13 00:55:30",1369482,3.674,86.2,8.05,1.387,10.26,101.8371,3.987,5.275,61.56,0,109.9,13.22,4.75,48.2
"2016-02-13 00:56:00",1369483,3.825,92.6,7.833,1.368,10.6,101.8311,3.972,5.242,61.68,0,109.9,13.22,4.74,54.6
"2016-02-13 00:56:30",1369484,3.139,90.4,5.869,1.332,9.74,101.8311,3.972,5.129,61.79,0,109.9,13.22,4.74,52.4
"2016-02-13 00:57:00",1369485,2.067,85.2,1.278,0.05,8.02,101.8272,3.962,5.043,61.81,0,109.9,13.27,4.73,47.2
"2016-02-13 00:57:30",1369486,2.082,82.7,1.693,0.1,7.777,101.8195,3.942,5.089,61.97,0,109.9,13.27,4.71,44.7
"2016-02-13 00:58:00",1369487,3.649,87.1,7.353,1.342,10.67,101.8142,3.929,5.185,62.06,0,109.9,13.23,4.69,49.1
"2016-02-13 00:58:30",1369488,3.299,80.7,7.795,1.407,10.18,101.8113,3.922,5.188,62.14,0,109.9,13.23,4.69,42.7
"2016-02-13 00:59:00",1369489,3.133,71.38,6.888,1.294,8.72,101.8014,3.896,5.137,62.06,0,109.9,13.23,4.66,33.4
"2016-02-13 00:59:30",1369490,3.277,69.4,7.006,1.309,9.57,101.7972,3.885,5.171,62.01,0,109.9,13.23,4.65,31.4
"2016-02-13 01:00:00",1369491,3.593,70.64,7.148,1.36,9.84,101.7972,3.885,5.091,61.81,0,109.9,13.23,4.65,32.6
"2016-02-13 01:00:30",1369492,2.519,66.14,0.75,0.031,7.847,101.7972,3.885,4.96,61.64,0,109.9,13.28,4.65,28.1
"2016-02-13 01:01:00",1369493,3.161,71.57,6.099,1.193,8.99,101.7972,3.885,5.052,61.69,0,110,13.23,4.65,33.6
"2016-02-13 01:01:30",1369494,3.961,78.14,7.166,1.347,10.74,101.7972,3.885,5.158,61.79,0,109.9,13.23,4.65,40.1
"2016-02-13 01:02:00",1369495,3.604,75.65,8.02,1.448,9.54,101.7961,3.883,5.067,61.71,0,109.9,13.23,4.65,37.7
"2016-02-13 01:02:30",1369496,3.057,71.73,7.182,1.255,8.86,101.7924,3.873,5.128,61.8,0,109.9,13.23,4.64,33.7
"2016-02-13 01:03:00",1369497,3.773,74.17,7.178,1.397,10.08,101.7822,3.847,5.07,61.74,0,109.9,13.23,4.61,36.2
"2016-02-13 01:03:30",1369498,2.429,61.91,1.679,0.09,7.565,101.7803,3.842,4.97,61.61,0,109.9,13.28,4.61,23.9
"2016-02-13 01:04:00",1369499,3.11,64.83,5.958,1.093,8.19,101.7757,3.831,4.93,61.54,0,109.9,13.23,4.60,26.8
"2016-02-13 01:04:30",1369500,3.529,69.9,7.753,1.244,9.08,101.7679,3.811,5.093,61.75,0,109.9,13.23,4.58,31.9
"2016-02-13 01:05:00",1369501,4.238,79.96,6.63,1.408,10.4,101.7653,3.804,5.043,61.6,0,109.9,13.23,4.57,42.0
"2016-02-13 01:05:30",1369502,3.783,79.89,6.696,1.394,9.76,101.7696,3.815,5.068,61.58,0,109.9,13.23,4.58,41.9
"2016-02-13 01:06:00",1369503,3.348,84.4,7.388,1.407,9.63,101.7725,3.822,5.094,61.56,0,109.9,13.23,4.59,46.4
"2016-02-13 01:06:30",1369504,3.195,86.2,6.719,1.377,10.1,101.7714,3.819,5.038,61.44,0,109.9,13.23,4.58,48.2
"2016-02-13 01:07:00",1369505,2.143,80.9,0.903,0.032,7.784,101.7734,3.825,4.875,61.11,0,109.9,13.27,4.59,42.9
"2016-02-13 01:07:30",1369506,2.613,79.97,5.36,1.097,8.95,101.776,3.831,4.965,61.01,0,109.9,13.23,4.60,42.0
"2016-02-13 01:08:00",1369507,3.305,81.8,7.628,1.353,10.43,101.7797,3.841,5.021,61.06,0,109.9,13.23,4.61,43.8
"2016-02-13 01:08:30",1369508,2.777,84.5,7.55,1.355,9.61,101.7814,3.845,5.072,61.19,0,109.9,13.23,4.61,46.5
"2016-02-13 01:09:00",1369509,3.059,86.5,7.559,1.374,9.44,101.7775,3.835,4.968,61.13,0,109.9,13.23,4.60,48.5
"2016-02-13 01:09:30",1369510,2.837,84.1,7.032,1.34,9.09,101.7789,3.839,4.952,61.13,0,109.9,13.23,4.60,46.1
"2016-02-13 01:10:00",1369511,2.574,76.71,7.237,1.297,9.36,101.7744,3.827,5.014,61.24,0,109.9,13.23,4.59,38.7
"2016-02-13 01:10:30",1369512,1.667,63.83,1.927,0.046,7.23,101.7767,3.833,4.862,61.12,0,109.9,13.27,4.60,25.8
"2016-02-13 01:11:00",1369513,2.136,62.54,5.961,1.094,8.36,101.7725,3.822,4.954,61.3,0,109.9,13.23,4.59,24.5
"2016-02-13 01:11:30",1369514,2.656,63.56,7.151,1.343,9.16,101.7725,3.822,4.961,61.39,0,109.9,13.23,4.59,25.6
"2016-02-13 01:12:00",1369515,2.746,66.99,7.813,1.366,9.95,101.7737,3.825,5.043,61.52,0,109.9,13.23,4.59,29.0
"2016-02-13 01:12:30",1369516,2.413,73.74,7.046,1.331,9.03,101.7703,3.817,4.951,61.54,0,109.9,13.24,4.58,35.7
"2016-02-13 01:13:00",1369517,2.382,77.15,7.17,1.346,9.33,101.7695,3.815,4.971,61.64,0,109.9,13.24,4.58,39.2
"2016-02-13 01:13:30",1369518,2.31,74.25,7.969,1.286,9.67,101.765,3.803,5.028,61.73,0,109.9,13.24,4.57,36.2
"2016-02-13 01:14:00",1369519,1.548,65.07,1.578,0.036,7.234,101.7639,3.8,4.843,61.56,0,109.9,13.29,4.57,27.1
"2016-02-13 01:14:30",1369520,1.59,65.58,1.559,0.034,7.084,101.7636,3.8,4.84,61.55,0,109.9,13.29,4.56,27.6
"2016-02-13 01:15:00",1369521,2.85,76.23,8.07,1.405,10.23,101.7633,3.799,5.024,61.72,0,109.9,13.25,4.56,38.2
"2016-02-13 01:15:30",1369522,2.403,80.4,6.274,1.25,9.17,101.7639,3.8,4.963,61.66,0,109.9,13.25,4.57,42.4
"2016-02-13 01:16:00",1369523,3.056,84.9,7.997,1.416,10.25,101.7639,3.8,5.045,61.75,0,109.9,13.25,4.57,46.9
"2016-02-13 01:16:30",1369524,3.003,84.1,7.556,1.421,9.29,101.7639,3.8,4.995,61.75,0,109.9,13.25,4.57,46.1
"2016-02-13 01:17:00",1369525,2.952,83.4,5.516,1.285,9.2,101.7639,3.8,4.926,61.64,0,109.9,13.25,4.57,45.4
"2016-02-13 01:17:30",1369526,2.115,81,2.154,0.075,7.648,101.7639,3.8,4.87,61.35,0,109.9,13.29,4.57,43.0
"2016-02-13 01:18:00",1369527,2.067,81.4,1.178,0.1,7.507,101.7639,3.8,4.837,61.02,0,109.9,13.29,4.57,43.4
"2016-02-13 01:18:30",1369528,3.252,90.3,7.15,1.364,10.35,101.7636,3.8,4.972,60.97,0,109.9,13.25,4.56,52.3
"2016-02-13 01:19:00",1369529,3.355,93.4,6.81,1.406,10.33,101.7631,3.798,4.959,60.89,0,109.9,13.25,4.56,55.4
"2016-02-13 01:19:30",1369530,3,94.6,7.411,1.299,9.59,101.7591,3.788,4.997,60.99,0,109.9,13.25,4.55,56.6
"2016-02-13 01:20:00",1369531,3.29,96.6,7.582,1.396,10.06,101.7563,3.781,4.914,61.06,0,109.9,13.25,4.55,58.6
"2016-02-13 01:20:30",1369532,3.14,94.5,7.162,1.385,9.85,101.7549,3.777,4.918,61.23,0,109.9,13.25,4.54,56.5
"2016-02-13 01:21:00",1369533,1.956,88.2,1.617,0.059,8.23,101.7543,3.776,4.86,61.11,0,109.9,13.3,4.54,50.2
"2016-02-13 01:21:30",1369534,2.398,89.9,3.877,1.062,8.72,101.7509,3.767,4.829,60.79,0,109.9,13.25,4.53,51.9
"2016-02-13 01:22:00",1369535,2.875,90.2,7.496,1.249,9.43,101.7481,3.76,4.937,60.78,0,109.9,13.25,4.53,52.2
"2016-02-13 01:22:30",1369536,3.411,90.6,6.823,1.404,10.09,101.7469,3.757,5.019,60.86,0,109.9,13.25,4.52,52.6
"2016-02-13 01:23:00",1369537,3.129,86.5,6.879,1.361,9.19,101.7469,3.757,4.994,60.91,0,109.9,13.25,4.52,48.5
"2016-02-13 01:23:30",1369538,3.335,84.3,6.803,1.348,9.5,101.7467,3.756,4.927,60.64,0,109.9,13.25,4.52,46.3
"2016-02-13 01:24:00",1369539,3.562,84.6,8.41,1.376,10.15,101.7464,3.756,4.917,60.38,0,109.9,13.25,4.52,46.6
"2016-02-13 01:24:30",1369540,2.127,79.55,1.141,0.055,8.04,101.7455,3.753,4.845,60.18,0,109.9,13.29,4.52,41.6
"2016-02-13 01:25:00",1369541,2.849,82,7.441,1.203,9.3,101.7447,3.751,4.886,60.17,0,109.9,13.24,4.52,44.0
"2016-02-13 01:25:30",1369542,3.14,85.5,6.648,1.308,9.4,101.7405,3.741,4.891,60.22,0,109.9,13.24,4.51,47.5
"2016-02-13 01:26:00",1369543,3.234,87,7.171,1.418,9.85,101.7379,3.734,5.002,60.2,0,109.8,13.24,4.50,49.0
"2016-02-13 01:26:30",1369544,3.39,88.2,7.444,1.37,9.43,101.736,3.729,4.894,60.14,0,109.9,13.24,4.49,50.2
"2016-02-13 01:27:00",1369545,3.273,89.1,6.985,1.394,9.79,101.7374,3.733,4.923,60.22,0,109.9,13.24,4.50,51.1
"2016-02-13 01:27:30",1369546,3.213,89.6,6.897,1.353,9.82,101.7363,3.73,4.886,60.33,0,109.9,13.24,4.50,51.6
"2016-02-13 01:28:00",1369547,2.013,83.1,1.187,0.089,8.09,101.7383,3.735,4.822,60.41,0,109.9,13.29,4.50,45.1
"2016-02-13 01:28:30",1369548,2.749,85.9,6.334,1.233,9.27,101.7386,3.736,4.871,60.66,0,109.9,13.25,4.50,47.9
"2016-02-13 01:29:00",1369549,2.811,84,6.632,1.289,9.32,101.7386,3.736,4.985,60.93,0,109.9,13.25,4.50,46.0
"2016-02-13 01:29:30",1369550,3.255,85.8,7.044,1.425,9.65,101.7412,3.742,4.922,61.02,0,109.9,13.25,4.51,47.8
"2016-02-13 01:30:00",1369551,2.416,79.12,6.665,1.285,8.74,101.7415,3.743,4.906,61,0,109.9,13.25,4.51,41.1
"2016-02-13 01:30:30",1369552,2.036,78.77,5.522,1.254,8.67,101.7444,3.751,4.88,60.97,0,109.9,13.25,4.52,40.8
"2016-02-13 01:31:00",1369553,2.151,89.4,8.46,1.408,10.32,101.7455,3.753,4.989,61.01,0,109.9,13.25,4.52,51.4
"2016-02-13 01:31:30",1369554,1.094,96.5,5.794,0.694,8.03,101.7449,3.752,4.788,60.56,0,109.9,13.26,4.52,58.5
"2016-02-13 01:32:00",1369555,1.18,99.9,1.693,0.058,7.265,101.7438,3.749,4.783,60.44,0,109.9,13.3,4.51,61.9
"2016-02-13 01:32:30",1369556,2.116,99.8,7.558,1.286,8.77,101.7461,3.755,4.89,60.61,0,109.9,13.26,4.52,61.8
"2016-02-13 01:33:00",1369557,2.876,100.1,7.192,1.425,9.99,101.7478,3.759,4.955,60.66,0,109.9,13.26,4.52,62.1
"2016-02-13 01:33:30",1369558,2.451,105.8,8.89,1.41,9.49,101.7478,3.759,4.982,60.71,0,109.9,13.26,4.52,67.8
"2016-02-13 01:34:00",1369559,1.731,105.4,3.558,1.054,8.03,101.7495,3.764,4.791,60.4,0,109.9,13.26,4.53,67.4
"2016-02-13 01:34:30",1369560,2.413,122.5,9.21,1.404,8.99,101.7481,3.76,4.885,60.33,0,109.9,13.26,4.53,84.5
"2016-02-13 01:35:00",1369561,1.943,125,7.723,1.183,8.47,101.7445,3.751,4.906,60.64,0,109.9,13.26,4.52,87.0
"2016-02-13 01:35:30",1369562,1.047,115.2,2.434,0.1,7.141,101.7413,3.743,4.774,60.64,0,109.9,13.3,4.51,77.2
"2016-02-13 01:36:00",1369563,1.148,111.2,3.506,0.051,7.621,101.7334,3.723,4.821,60.77,0,109.9,13.3,4.49,73.2
"2016-02-13 01:36:30",1369564,2.652,115.2,7.859,1.421,10.15,101.7309,3.716,4.905,60.57,0,109.9,13.26,4.48,77.2
"2016-02-13 01:37:00",1369565,2.365,114.3,7.764,1.407,9.36,101.7292,3.712,4.915,60.5,0,109.9,13.26,4.48,76.3
"2016-02-13 01:37:30",1369566,2.431,120.6,7.445,1.389,8.77,101.721,3.691,4.922,60.77,0,109.9,13.26,4.46,82.6
"2016-02-13 01:38:00",1369567,2.003,128.5,7.332,1.192,7.804,101.717,3.681,4.869,61.07,0,109.9,13.26,4.45,90.5
"2016-02-13 01:38:30",1369568,2.001,130.6,6.775,1.234,8.43,101.7165,3.679,4.931,61.78,0,109.9,13.26,4.44,92.6
"2016-02-13 01:39:00",1369569,1.832,131.3,5.099,1.177,7.482,101.7188,3.685,4.77,62.33,0,109.9,13.26,4.45,93.3
"2016-02-13 01:39:30",1369570,1.419,131.6,2.024,0.524,6.367,101.7196,3.687,4.768,62.94,0,109.9,13.26,4.45,93.6
"2016-02-13 01:40:00",1369571,2.386,141.4,6.829,1.301,8.14,101.7214,3.692,4.935,63.62,0,109.9,13.25,4.46,103.4
"2016-02-13 01:40:30",1369572,2.815,145.8,6.793,1.36,8.77,101.7211,3.691,4.851,63.88,0,109.9,13.25,4.46,107.8
"2016-02-13 01:41:00",1369573,3.312,148.1,7.267,1.382,9.67,101.7135,3.672,4.856,64.13,0,109.9,13.25,4.44,110.1
"2016-02-13 01:41:30",1369574,2.711,145.9,6.973,1.25,8.71,101.7016,3.641,4.896,64.35,0,109.9,13.25,4.41,107.9
"2016-02-13 01:42:00",1369575,3.05,149.1,7.091,1.402,9.28,101.6903,3.612,4.829,64.33,0,109.9,13.25,4.38,111.1
"2016-02-13 01:42:30",1369576,1.717,146.8,2.042,0.102,7.093,101.6897,3.611,4.738,64.31,0,109.9,13.3,4.38,108.8
"2016-02-13 01:43:00",1369577,2.169,156.5,6.856,1.221,8.42,101.69,3.612,4.814,64.5,0,109.9,13.25,4.38,118.5
"2016-02-13 01:43:30",1369578,2.516,157.9,7.958,1.401,9.48,101.6906,3.613,4.823,64.7,0,109.9,13.25,4.38,119.9
"2016-02-13 01:44:00",1369579,1.506,143,3.904,1.222,8.49,101.6881,3.607,4.731,64.55,0,109.9,13.25,4.37,105.0
"2016-02-13 01:44:30",1369580,1.272,131,5.97,1.171,8.76,101.679,3.584,4.827,63.93,0,109.9,13.25,4.35,93.0
"2016-02-13 01:45:00",1369581,1.343,134.2,5.965,1.342,8.94,101.6644,3.546,4.726,63.08,0,109.9,13.26,4.31,96.2
"2016-02-13 01:45:30",1369582,1.07,129.2,7.672,1.375,9.38,101.6598,3.535,4.733,62.88,0,109.9,13.26,4.30,91.2
"2016-02-13 01:46:00",1369583,0.468,120.5,11.8,1.276,8.92,101.661,3.538,4.722,62.84,0,109.9,13.26,4.30,82.5
"2016-02-13 01:46:30",1369584,-0.388,104.6,14.32,0.009,8.16,101.6621,3.541,4.62,62.7,0,109.9,13.31,4.30,66.6
"2016-02-13 01:47:00",1369585,-0.272,131.8,1.663,0.09,6.984,101.6616,3.539,4.587,62.69,0,109.9,13.31,4.30,93.8
"2016-02-13 01:47:30",1369586,0.014,130.1,2.15,0.043,7.114,101.6537,3.519,4.578,62.69,0,109.9,13.31,4.28,92.1
"2016-02-13 01:48:00",1369587,0.039,115.8,5.629,0.026,7.329,101.6457,3.499,4.567,62.77,0,109.9,13.31,4.26,77.8
"2016-02-13 01:48:30",1369588,0.752,100.1,6.403,1.223,9.06,101.6429,3.492,4.647,63.08,0,109.9,13.27,4.26,62.1
"2016-02-13 01:49:00",1369589,0.701,104.2,9.09,1.208,9.12,101.6426,3.491,4.653,63.16,0,109.9,13.27,4.25,66.2
"2016-02-13 01:49:30",1369590,0.099,130.2,6.616,0.079,7.003,101.6308,3.46,4.527,62.94,0,109.9,13.31,4.22,92.2
"2016-02-13 01:50:00",1369591,1.237,158,9.93,1.35,8.42,101.6285,3.455,4.612,62.93,0,109.9,13.27,4.22,120.0